AKJ6775 VOHS-VOBL

Flight info

Callsign AKJ6775
Flight time N/A
Altitude 36000
Route LURGI5 LURGI Q21 TELUV TELUV7E
Aircraft B38M/M-SDE1FGHILORVWXY/HB1

Departure

Time 2026-04-21 06:05
Airport Rajiv Gandhi International Airport (VOHS)

Arrival

Time N/A
Airport Kempegowda International Airport Bengaluru (VOBL)
Time Latitude Longitude Altitude Speed Heading
2026-04-21 05:43 17.23407 78.44247 1982 ft 0 kts 89°
2026-04-21 05:56 17.23407 78.44242 1982 ft 2 kts 91°
2026-04-21 05:56 17.23410 78.44225 1983 ft 2 kts 112°
2026-04-21 05:56 17.23418 78.44210 1983 ft 2 kts 135°
2026-04-21 05:57 17.23431 78.44200 1982 ft 2 kts 154°
2026-04-21 05:57 17.23447 78.44194 1982 ft 2 kts 169°
2026-04-21 05:57 17.23463 78.44192 1982 ft 2 kts 177°
2026-04-21 05:57 17.23473 78.44192 1982 ft 1 kts 181°
2026-04-21 06:01 17.23460 78.44191 1982 ft 6 kts 182°
2026-04-21 06:01 17.23396 78.44191 1984 ft 10 kts 179°
2026-04-21 06:01 17.23318 78.44193 1983 ft 12 kts 179°
2026-04-21 06:01 17.23263 78.44236 1983 ft 11 kts 96°
2026-04-21 06:02 17.23262 78.44319 1984 ft 12 kts 88°
2026-04-21 06:02 17.23215 78.44366 1986 ft 10 kts 174°
2026-04-21 06:02 17.23141 78.44371 1984 ft 12 kts 170°
2026-04-21 06:02 17.23105 78.44441 1983 ft 12 kts 90°
2026-04-21 06:03 17.23105 78.44535 1983 ft 13 kts 93°
2026-04-21 06:03 17.23100 78.44642 1983 ft 17 kts 90°
2026-04-21 06:03 17.23107 78.44797 1982 ft 25 kts 89°
2026-04-21 06:03 17.23088 78.44909 1982 ft 12 kts 137°
2026-04-21 06:04 17.23013 78.44929 1984 ft 12 kts 176°
2026-04-21 06:04 17.22936 78.44914 1982 ft 11 kts 218°
2026-04-21 06:04 17.22904 78.44839 1983 ft 12 kts 265°
2026-04-21 06:04 17.22903 78.44806 1983 ft 18 kts 268°
2026-04-21 06:05 17.22900 78.44381 1982 ft 97 kts 270°
2026-04-21 06:05 17.22907 78.43432 1998 ft 157 kts 273°
2026-04-21 06:05 17.22941 78.42167 2302 ft 194 kts 272°
2026-04-21 06:05 17.22937 78.40694 3056 ft 209 kts 270°
2026-04-21 06:06 17.22874 78.39103 3786 ft 232 kts 259°
2026-04-21 06:06 17.22048 78.37571 4269 ft 253 kts 223°
2026-04-21 06:06 17.20438 78.36800 4761 ft 260 kts 186°
2026-04-21 06:06 17.18685 78.37141 5329 ft 267 kts 153°
2026-04-21 06:07 17.17188 78.38396 5887 ft 287 kts 127°
2026-04-21 06:07 17.16313 78.40287 6477 ft 292 kts 101°
2026-04-21 06:07 17.16048 78.42406 7067 ft 297 kts 97°
2026-04-21 06:07 17.15352 78.44422 7575 ft 299 kts 126°
2026-04-21 06:08 17.13757 78.45790 8205 ft 301 kts 157°
2026-04-21 06:08 17.11688 78.46124 8805 ft 306 kts 188°
2026-04-21 06:08 17.09730 78.45316 9436 ft 306 kts 218°
2026-04-21 06:08 17.08084 78.43872 10071 ft 312 kts 219°
2026-04-21 06:09 17.06232 78.42713 10636 ft 315 kts 204°
2026-04-21 06:09 17.04181 78.41833 11260 ft 319 kts 201°
2026-04-21 06:09 17.02031 78.41214 11827 ft 323 kts 184°
2026-04-21 06:09 16.99844 78.41462 12443 ft 322 kts 162°
2026-04-21 06:10 16.97679 78.42234 13011 ft 334 kts 164°
2026-04-21 06:10 16.95379 78.42810 13486 ft 347 kts 167°
2026-04-21 06:10 16.92976 78.43345 13963 ft 358 kts 168°
2026-04-21 06:10 16.90489 78.43875 14400 ft 369 kts 168°
2026-04-21 06:11 16.87924 78.44317 14840 ft 377 kts 174°
2026-04-21 06:11 16.85289 78.44596 15270 ft 385 kts 174°
2026-04-21 06:11 16.82622 78.44888 15747 ft 392 kts 174°
2026-04-21 06:11 16.79902 78.45182 16233 ft 396 kts 174°
2026-04-21 06:12 16.77123 78.45478 16670 ft 403 kts 174°
2026-04-21 06:12 16.74319 78.45778 17176 ft 407 kts 174°
2026-04-21 06:12 16.71491 78.46080 17700 ft 409 kts 174°
2026-04-21 06:12 16.68636 78.46384 18178 ft 413 kts 174°
2026-04-21 06:13 16.65804 78.46687 18649 ft 415 kts 175°
2026-04-21 06:13 16.62917 78.46995 19073 ft 417 kts 175°
2026-04-21 06:13 16.60022 78.47304 19540 ft 418 kts 175°
2026-04-21 06:13 16.57102 78.47616 19988 ft 420 kts 175°
2026-04-21 06:14 16.54239 78.47921 20460 ft 421 kts 175°
2026-04-21 06:14 16.51313 78.48232 20836 ft 424 kts 175°
2026-04-21 06:14 16.48389 78.48543 21189 ft 427 kts 175°
2026-04-21 06:14 16.45389 78.48863 21550 ft 430 kts 176°
2026-04-21 06:15 16.42399 78.49182 21919 ft 433 kts 176°
2026-04-21 06:15 16.39394 78.49502 22281 ft 435 kts 176°
2026-04-21 06:15 16.36373 78.49823 22648 ft 437 kts 176°
2026-04-21 06:15 16.34359 78.50037 22905 ft 438 kts 176°
2026-04-21 06:16 16.30322 78.50467 23393 ft 440 kts 176°
2026-04-21 06:16 16.27269 78.50791 23745 ft 441 kts 176°
2026-04-21 06:16 16.25231 78.51008 23959 ft 442 kts 176°
2026-04-21 06:16 16.21129 78.51398 24380 ft 442 kts 181°
2026-04-21 06:17 16.19113 78.51253 24509 ft 441 kts 192°
2026-04-21 06:17 16.16114 78.50593 24967 ft 437 kts 194°
2026-04-21 06:17 16.13087 78.50085 25199 ft 443 kts 189°
2026-04-21 06:17 16.10030 78.49661 25437 ft 446 kts 190°
2026-04-21 06:18 16.06943 78.49201 25653 ft 449 kts 191°
2026-04-21 06:18 16.03849 78.48721 25867 ft 451 kts 191°
2026-04-21 06:18 16.00721 78.48223 26087 ft 454 kts 191°